Regional Weather Roundup
Issued by NWS

Home | Current Version | Previous Version | Text Only | Print | Product List | Glossary Off
Versions: 1 2 3 4 5 6 7 8 9 10 11 12 13 14 15 16 17 18 19 20 21 22 23 24 25 26 27 28 29 30 31 32 33 34 35 36 37 38 39 40 41 42 43 44 45 46 47 48 49 50

000
ASUS43 KDTX 310401
RWRMI
MICHIGAN HOURLY REGIONAL WEATHER ROUNDUP
NATIONAL WEATHER SERVICE DETROIT/PONTIAC MI
1200 AM EDT THU JUL 31 2014

NOTE: "FAIR" INDICATES FEW OR NO CLOUDS BELOW 12,000 FEET WITH NO
SIGNIFICANT WEATHER AND/OR OBSTRUCTION TO VISIBILITY.

MIZ047>049-052>055-059>063-066>070-074>076-081>083-310500-
SOUTHEAST LOWER MICHIGAN

CITY           SKY/WX    TMP DP  RH WIND       PRES   REMARKS
ADRIAN         PTCLDY    60  59  96 W5        30.03R
ALMA           PTCLDY    56  50  81 CALM      30.01S
ANN ARBOR      FOG       54  51  90 SW5       30.01S VSB 1/4
BAD AXE        CLOUDY    59  55  87 CALM      29.99F
CARO           MOCLDY    61  60  95 CALM      29.96S
DETROIT CITY   PTCLDY    64  58  80 SW5       29.98F
DETROIT        MOCLDY    61  58  90 S6        30.00F
FLINT          CLEAR     62  56  80 W7        29.99S
GROSSE ILE     CLEAR     63  61  94 W3        29.99S
HILLSDALE      CLEAR     57  57  99 CALM      30.04S
HOWELL         CLEAR     58  56  94 SW6       30.00S

CITY           SKY/WX    TMP DP  RH WIND       PRES   REMARKS
JACKSON        CLEAR     59  54  83 W5        30.02S
LAMBERTVILLE   CLOUDY    61  57  88 CALM      30.01S FOG
LANSING        CLEAR     59  51  75 W7        30.02R
LAPEER         MOCLDY    58  55  91 CALM      29.98F
MASON          CLEAR     58  52  79 CALM      30.02R
MONROE         MOCLDY    61  59  94 CALM      29.99S
MT. CLEMENS    MOCLDY    62  60  94 SW3       29.97S
PONTIAC        MOCLDY    62  58  86 SW6       29.99S
PORT HOPE        N/A     60  56  86 E10       29.98S
PORT HURON     CLOUDY    55  55 100 CALM      29.98F FOG
TRI CITIES     MOCLDY    63  53  70 NW6       29.99R
TROY           PTCLDY    63  59  86 SW5       30.00S
SAGINAW HB     PTCLDY    63  52  67 NW6       29.98S
$$
MIZ043>046-050>051-056>058-064>065-071>073-077>080-310500-
SOUTHWEST LOWER MICHIGAN

CITY           SKY/WX    TMP DP  RH WIND       PRES   REMARKS
BATTLE CREEK   CLEAR     58  51  78 W6        30.04S
BENTON HARBOR  CLEAR     53  52  96 CALM      30.04S
BIG RAPIDS     MOCLDY    55  49  83 SW3       30.00S
COLDWATER      CLEAR     59  57  92 W3        30.04S
FREMONT        FAIR      52  50  92 CALM      30.01S
HOLLAND        CLEAR     54  51  90 CALM      30.03S
GRAND RAPIDS   PTCLDY    58  52  80 W7        30.02S
IONIA          FAIR      56  47  71 W6        30.01S
KALAMAZOO      CLEAR     57  53  86 CALM      30.04S
LUDINGTON      CLOUDY    59  53  79 CALM      29.99F
MARSHALL       CLEAR     54  53  96 CALM      30.03S
MOUNT PLEASANT PTCLDY    58  50  74 W3        29.99S
MUSKEGON       CLEAR     55  51  86 CALM      30.02S
SOUTH HAVEN    CLEAR     52  52 100 CALM      30.04S
$$
MIZ016>042-310500-
NORTHERN LOWER MICHIGAN

CITY           SKY/WX    TMP DP  RH WIND       PRES   REMARKS
ALPENA         MOCLDY    55  54  96 CALM      29.98S FOG
BEAVER ISLAND  MOCLDY    56  56  99 CALM      29.97S
BELLAIRE       CLOUDY    55  52  90 CALM      29.97S
CADILLAC       MOCLDY    53  49  87 CALM      29.98F
CHARLEVOIX     CLOUDY    59  53  82 S5        29.99F
FRANKFORT      CLOUDY    60  51  73 CALM      29.98S
GAYLORD        CLOUDY    56  51  84 CALM      29.98F
GRAYLING       CLOUDY    56  52  87 CALM      29.99F
HARBOR SPRINGS CLOUDY    57  55  94 CALM      29.97S
HOUGHTON LAKE  CLOUDY    53  50  89 CALM      30.00S
MANISTEE       MOCLDY    55  52  88 CALM      29.99S
OSCODA         CLOUDY    59  54  83 CALM      29.98S
PELLSTON       CLOUDY    53  52  96 CALM      29.97F
ROGERS CITY    CLOUDY    56  55  96 CALM      29.98S
TRAVERSE CITY  CLOUDY    59  52  77 SW3       29.96F
$$
MIZ007>008-015-310500-
EASTERN UPPER MICHIGAN

CITY           SKY/WX    TMP DP  RH WIND       PRES   REMARKS
KINROSS        CLOUDY    55  55 100 CALM      29.96S
MACKINAC ISLAN CLOUDY    58  56  91 CALM      29.96F
NEWBERRY       MOCLDY    52  51  97 CALM      29.96S
S. S. MARIE    CLOUDY    55  50  83 CALM      29.95F
$$
MIZ004>006-011>014-085-310500-
CENTRAL UPPER MICHIGAN

CITY           SKY/WX    TMP DP  RH WIND       PRES   REMARKS
MANISTIQUE     MOCLDY    49  49  99 CALM      29.95F FOG
ESCANABA       PTCLDY    54  52  94 NW5       29.96S
MENOMINEE      CLOUDY    57  55  94 CALM      29.96S
SAWYER-GWINN   MOCLDY    53  51  94 SW3       29.97S
$$
MIZ001>003-009>011-084-310500-
WESTERN UPPER MICHIGAN

CITY           SKY/WX    TMP DP  RH WIND       PRES   REMARKS
IRON MOUNTAIN  MOCLDY    57  55  93 CALM      29.97S
HOUGHTON       MOCLDY    57  53  86 NW6       29.95F
COPPER HARBOR    N/A     60  52  74 VRB5      29.93F
$$

ABBREVIATIONS USED IN REMARKS
   TC - TEMPERATURE IN CELSIUS
  WCI - WIND CHILL INDEX
   HX - HEAT INDEX
  VSB - VISIBILITY




USA.gov is the U.S. government's official web portal to all federal, state and local government web resources and services.